Flag for U.S.A. Weather past 2 weeks in Binghamton, New York, U.S.A.

Now
28 °F

Clear.


Feels Like: 19 °F
Forecast: 28 / 54 °F
Wind: 9 mph from Northwest

Location: Binghamton Regional Airport

Current Time: Apr 25, 2015 at 4:48:32 AM

Latest Report: Apr 25, 2015 at 3:53 AM


Visibility: 10 mi

Pressure: 29.91 "Hg

Humidity: 72%

Dew point: 20 °F

Location of BinghamtonLocation

Historic Weather in Binghamton — Graph

°F

Binghamton temperature yesterday

Maximum temperature yesterday: 33 °F (at 1:53 PM)
Minimum temperature yesterday: 28 °F (at 4:53 AM)
Average temperature yesterday: 31 °F

Past Weeks' High & Low Weather Summary

 TemperatureHumidityPressure
High73 °F (Apr 13, 3:53 PM)100% (Apr 10, 3:53 AM)30.44 "Hg (Apr 10, 3:53 AM)
Low28 °F (Apr 24, 4:53 AM)19% (Apr 16, 2:53 PM)29.52 "Hg (Apr 21, 1:53 AM)
Average47 °F62%29.98 "Hg
* Reported Apr 10 3:03 AM — Apr 25 3:53 AM, Binghamton, Weather by CustomWeather, © 2015

Note: Actual official high and low records may vary slightly from our data, if they occured in-between our weather recording intervals... More about our weather records

Advertising

Binghamton weather history for previous 24 hours

 ConditionsComfort  
Time TempWeatherWind HumidityBarometerVisibility
3:53 AM
Sat, Apr 25
28 °FClear.9 mph72%29.91 "Hg10 mi
2:53 AM29 °FClear.7 mph72%29.93 "Hg10 mi
1:53 AM29 °FClear.7 mph69%29.94 "Hg10 mi
12:53 AM30 °FClear.9 mph69%29.95 "Hg10 mi
11:53 PM
Fri, Apr 24
30 °FPassing clouds.5 mph69%29.96 "Hg10 mi
10:53 PM31 °FPassing clouds.5 mph67%29.96 "Hg10 mi
9:53 PM31 °FPassing clouds.5 mph67%29.96 "Hg10 mi
8:53 PM32 °FOvercast.5 mph64%29.96 "Hg10 mi
7:53 PM32 °FOvercast.7 mph64%29.91 "Hg10 mi
6:53 PM33 °FOvercast.10 mph61%29.95 "Hg10 mi
5:53 PM33 °FCloudy.14 mph63%29.95 "Hg10 mi
4:53 PM33 °FMostly cloudy.18 mph61%29.94 "Hg10 mi
3:53 PM33 °FMore clouds than sun.12 mph61%29.93 "Hg10 mi
2:53 PM33 °FOvercast.9 mph61%29.92 "Hg10 mi
1:53 PM33 °FOvercast.13 mph61%29.91 "Hg10 mi
1:04 PM32 °FLight snow. Cloudy.14 mph66%29.86 "Hg8 mi
1:01 PM32 °FLight snow. Mostly cloudy.18 mph66%29.86 "Hg2 mi
12:03 PM32 °FLight snow. Cloudy.14 mph75%29.87 "Hg3 mi
11:53 AM30 °FLight snow. Mostly cloudy.15 mph75%29.92 "Hg1 mi
10:53 AM31 °FMore clouds than sun.16 mph64%29.91 "Hg10 mi
9:53 AM30 °FLight snow. Mostly cloudy.15 mph72%29.91 "Hg6 mi
9:01 AM30 °FOvercast.16 mph66%29.86 "Hg10 mi
7:53 AM29 °FMostly cloudy.10 mph75%29.91 "Hg10 mi
6:53 AM28 °FMostly cloudy.8 mph75%29.90 "Hg10 mi
5:53 AM28 °FLight snow. Mostly cloudy.9 mph75%29.89 "Hg4 mi
4:53 AM28 °FOvercast.13 mph69%29.89 "Hg10 mi
Weather by CustomWeather, © 2015

See weather overviewHow to use our weather pages